Home   Weather   22°59'N, 113°44'E   Past weeks
Flag for China

Past Weather in 22°59'N, 113°44'E, China — Yesterday and Last 2 Weeks

Now
86 °F

Passing clouds.


Feels Like: 97 °F
Forecast: 94 / 83 °F
Wind: 8 mph from South

Location: Canton Airport

Current Time: Jun 21, 2019 at 1:26:48 am

Latest Report: Jun 21, 2019 at 1:00 am


Visibility: N/A

Pressure: 29.68 "Hg

Humidity: 75%

Dew Point: 77 °F

Location of 22°59'N, 113°44'ELocation

Past Weather in 22°59'N, 113°44'E — Graph

°F

22°59'N, 113°44'E Temperature Yesterday

Maximum temperature yesterday: 93 °F (at 11:30 am)
Minimum temperature yesterday: 82 °F (at 1:00 am)
Average temperature yesterday: 87 °F

High & Low Weather Summary for the Past Weeks

 TemperatureHumidityPressure
High95 °F (Jun 8, 2:00 pm)94% (Jun 6, 12:00 am)29.86 "Hg (Jun 6, 12:00 am)
Low75 °F (Jun 10, 5:30 pm)38% (Jun 15, 4:00 pm)29.50 "Hg (Jun 13, 3:00 pm)
Average84 °F75%29.69 "Hg
* Reported Jun 6 12:00 am — Jun 21 12:00 am, 22°59'N, 113°44'E. Weather by CustomWeather, © 2019

Note: Actual official high and low records may vary slightly from our data, if they occured in-between our weather recording intervals... More about our weather records

Advertising

22°59'N, 113°44'E Weather History for the Previous 24 Hours

Scroll right to see more
 ConditionsComfort  
Time TempWeatherWind HumidityBarometerVisibility
12:00 am
Fri, Jun 21
86 °FPassing clouds.6 mph75%29.68 "HgN/A
11:30 pm
Thu, Jun 20
86 °FPassing clouds.3 mph75%29.68 "HgN/A
11:00 pm86 °FPassing clouds.6 mph75%29.68 "HgN/A
10:30 pm88 °FPassing clouds.3 mph70%29.68 "HgN/A
10:00 pm86 °FPassing clouds.6 mph75%29.68 "HgN/A
9:30 pm88 °FPassing clouds.6 mph70%29.65 "HgN/A
9:00 pm88 °FClear.6 mph70%29.65 "Hg10 mi
8:30 pm90 °FPassing clouds.8 mph67%29.65 "HgN/A
8:00 pm90 °FPassing clouds.8 mph67%29.65 "HgN/A
7:30 pm90 °FPassing clouds.8 mph63%29.65 "HgN/A
7:00 pm90 °FScattered clouds.8 mph63%29.65 "HgN/A
6:30 pm91 °FScattered clouds.8 mph59%29.65 "HgN/A
6:00 pm91 °FScattered clouds.8 mph59%29.65 "HgN/A
5:30 pm91 °FScattered clouds.10 mph59%29.65 "HgN/A
5:00 pm93 °FPassing clouds.8 mph59%29.65 "HgN/A
4:30 pm93 °FPassing clouds.8 mph56%29.65 "HgN/A
4:00 pm91 °FPassing clouds.10 mph59%29.65 "HgN/A
3:30 pm88 °FPassing clouds.8 mph70%29.65 "HgN/A
3:00 pm86 °FPartly sunny.10 mph75%29.68 "HgN/A
2:30 pm86 °FPartly sunny.15 mph70%29.68 "HgN/A
2:00 pm91 °FPartly sunny.20 mph59%29.68 "HgN/A
1:30 pm91 °FPartly sunny.13 mph56%29.68 "HgN/A
1:00 pm91 °FPartly sunny.10 mph59%29.68 "HgN/A
12:30 pm91 °FPartly sunny.13 mph59%29.71 "HgN/A
12:00 pm93 °FScattered clouds.13 mph56%29.71 "HgN/A
11:30 am93 °FScattered clouds.10 mph56%29.71 "HgN/A
11:00 am91 °FPassing clouds.10 mph63%29.74 "HgN/A
10:30 am91 °FScattered clouds.8 mph63%29.74 "HgN/A
10:00 am90 °FScattered clouds.8 mph67%29.74 "HgN/A
9:30 am90 °FScattered clouds.6 mph67%29.74 "HgN/A
9:00 am88 °FScattered clouds.8 mph70%29.74 "HgN/A
8:30 am88 °FScattered clouds.8 mph70%29.74 "HgN/A
8:00 am86 °FScattered clouds.6 mph79%29.74 "HgN/A
7:30 am84 °FScattered clouds.3 mph84%29.74 "HgN/A
7:00 am84 °FScattered clouds.3 mph84%29.74 "HgN/A
6:30 am84 °FScattered clouds.1 mph84%29.74 "HgN/A
6:00 am82 °FScattered clouds.1 mph84%29.74 "HgN/A
5:30 am82 °FPassing clouds.1 mph89%29.71 "HgN/A
5:00 am82 °FPassing clouds.1 mph84%29.71 "HgN/A
4:30 am82 °FClear.3 mph89%29.71 "Hg10 mi
4:00 am82 °FClear.3 mph89%29.71 "Hg10 mi
3:30 am82 °FPassing clouds.1 mph84%29.71 "HgN/A
3:00 am82 °FPassing clouds.1 mph84%29.71 "HgN/A
2:30 am82 °FPassing clouds.3 mph84%29.71 "HgN/A
2:00 am82 °FPassing clouds.3 mph84%29.71 "HgN/A
1:30 am82 °FClear.3 mph84%29.71 "Hg10 mi
1:00 am82 °FClear.3 mph84%29.74 "Hg10 mi
Weather by CustomWeather, © 2019

See weather overview